This is the latest recevied weather packets stored in our database for station/object K2MRS. If no packets are shown the sender has not sent any weather packets the latest 10 day(s).
| Time | Temp. | Humidity | Pressure | Rain* | Wind** | Luminosity | Snow |
|---|---|---|---|---|---|---|---|
| 1778004410 | 13.89° C | 86% | 1016.7 hPa | 0 mm | - | 142 W/m² | - |
| 1778004240 | 13.89° C | 87% | 1016.6 hPa | 0 mm | - | 155 W/m² | - |
| 1778003810 | 13.89° C | 87% | 1016.4 hPa | 0 mm | - | 179 W/m² | - |
| 1778003509 | 13.89° C | 87% | 1016.6 hPa | 0 mm | - | 176 W/m² | - |
| 1778003210 | 13.89° C | 88% | 1016.2 hPa | 0 mm | - | 155 W/m² | - |
| 1778002909 | 13.89° C | 88% | 1016.2 hPa | 0 mm | - | 171 W/m² | - |
| 1778002604 | 13.33° C | 88% | 1016.2 hPa | 0 mm | - | 216 W/m² | - |
| 1778002304 | 13.33° C | 90% | 1016.2 hPa | 0 mm | - | 272 W/m² | - |
| 1778002001 | 13.33° C | 90% | 1016.1 hPa | 0 mm | - | 278 W/m² | - |
| 1778001699 | 13.33° C | 91% | 1016.1 hPa | 0 mm | - | 264 W/m² | - |
| 1778001400 | 13.33° C | 91% | 1016.1 hPa | 0 mm | - | 223 W/m² | - |
| 1778001100 | 13.33° C | 92% | 1016.1 hPa | 0 mm | - | 264 W/m² | - |
| 1778000800 | 12.78° C | 92% | 1016.2 hPa | 0 mm | - | 264 W/m² | - |
| 1778000630 | 12.78° C | 92% | 1016.2 hPa | 0 mm | - | 265 W/m² | - |
| 1778000316 | 12.78° C | 92% | 1016.2 hPa | 0 mm | - | 221 W/m² | - |
| 1778000026 | 12.78° C | 92% | 1016.2 hPa | 0 mm | - | 144 W/m² | - |
| 1777999599 | 12.78° C | 93% | 1016.2 hPa | 0 mm | - | 193 W/m² | - |
| 1777999298 | 12.78° C | 93% | 1016.2 hPa | 0 mm | - | 178 W/m² | - |
| 1777998998 | 12.22° C | 93% | 1016.1 hPa | 0 mm | - | 132 W/m² | - |
| 1777998828 | 12.22° C | 93% | 1016.1 hPa | 0 mm | - | 141 W/m² | - |
| 1777998398 | 12.22° C | 93% | 1016.2 hPa | 0 mm | - | 132 W/m² | - |
| 1777998224 | 12.22° C | 93% | 1016.1 hPa | 0 mm | - | 123 W/m² | - |
| 1777997795 | 12.22° C | 93% | 1016.1 hPa | 0 mm | - | 93 W/m² | - |
| 1777997497 | 12.22° C | 94% | 1016 hPa | 0 mm | - | 105 W/m² | - |
| 1777997195 | 11.67° C | 94% | 1016 hPa | 0 mm | - | 104 W/m² | - |
* Rain latest hour (hover to see other rain measurements)
** Current wind speed in m/s (hover to see current wind gust speed)